Windom, MN

8:29 PM CDT on April 26, 2017 (GMT -0500)
Windom Municipal

Weather History for KMWM - February, 2011

Change the Weather History Date:

Saturday, February 5, 2011

  Actual Average Record
Temperature  
Mean Temperature 17 °F -  
Max Temperature 28 °F 24 °F 55 °F (2005)
Min Temperature 6 °F 5 °F -28 °F (1979)
Degree Days  
Heating Degree Days 48    
Moisture  
Dew Point -30 °F    
Average Humidity 10    
Maximum Humidity 12    
Minimum Humidity 9    
Precipitation  
Precipitation 0.00 in - - ()
Sea Level Pressure  
Sea Level Pressure 29.55 in    
Wind  
Wind Speed 2 mph (WSW)    
Max Wind Speed 10 mph    
Max Gust Speed -    
Visibility 8 miles    
Events Snow    
Averages and records for this station are not official NWS values.
T = Trace of Precipitation, MM = Missing Value Source: NWS Daily Summary

Daily Weather History Graph

Daily Weather History Graph

Search for Another Location

Airport or City:

Trip Planner

Search our weather history database for the weather conditions in past years. The results will help you decide how hot, cold, wet, or windy it might be!

Date:

Astronomy

Feb. 05, 2011 Rise Set
Actual Time 7:33 AM CST 5:36 PM CST
Civil Twilight 7:02 AM CST 6:06 PM CST
Nautical Twilight 6:28 AM CST 6:40 PM CST
Astronomical Twilight 5:55 AM CST 7:14 PM CST
Moon 8:19 AM CST (2/5) 8:34 PM CST (2/5)
Length of Visible Light 11h 03m
Length of Day
10h 03m
Waxing Crescent, 6% of the Moon is Illuminated
Feb 5
Waxing Crescent
Feb 11
First Quarter
Feb 18
Full
Feb 24
Last Quarter
Mar 4
New

Hourly Weather History & Observations

Time (CST) Temp. Windchill Dew Point Humidity Pressure Visibility Wind Dir Wind Speed Gust Speed Precip Events Conditions
12:12 AM 15.8 °F 10.2 °F -31.0 °F 11% 29.63 in 10.0 mi SW 3.5 mph - N/A   Clear
12:32 AM 14.0 °F 6.5 °F -32.8 °F 11% 29.63 in 10.0 mi WSW 4.6 mph - N/A   Clear
12:52 AM 15.8 °F - -32.8 °F 10% 29.62 in 10.0 mi Calm Calm - N/A   Clear
1:12 AM 14.0 °F 8.2 °F -32.8 °F 11% 29.61 in 10.0 mi SSW 3.5 mph - N/A   Clear
1:32 AM 14.0 °F - -32.8 °F 11% 29.62 in 10.0 mi Calm Calm - N/A   Clear
1:52 AM 14.0 °F - -32.8 °F 11% 29.61 in 10.0 mi Calm Calm - N/A   Clear
2:13 AM 15.8 °F 10.2 °F -29.2 °F 12% 29.61 in 10.0 mi SSW 3.5 mph - N/A   Clear
2:32 AM 15.8 °F 10.2 °F -29.2 °F 12% 29.60 in 10.0 mi SW 3.5 mph - N/A   Clear
2:52 AM 14.0 °F - -32.8 °F 11% 29.60 in 10.0 mi Calm Calm - N/A   Clear
3:12 AM 15.8 °F - -31.0 °F 11% 29.58 in 10.0 mi Calm Calm - N/A   Clear
3:32 AM 12.2 °F - -34.6 °F 11% 29.58 in 7.0 mi Calm Calm - N/A   Clear
3:52 AM 10.4 °F - -34.6 °F 11% 29.57 in 5.0 mi Calm Calm - N/A   Haze
4:13 AM 12.2 °F - -32.8 °F 12% 29.57 in 0.8 mi Calm Calm - N/A   Haze
4:32 AM 12.2 °F 1.7 °F -32.8 °F 12% 29.57 in 4.0 mi West 6.9 mph - N/A   Haze
4:53 AM 10.4 °F 4.0 °F -34.6 °F 11% 29.56 in 7.0 mi West 3.5 mph - N/A   Clear
5:12 AM 12.2 °F - -32.8 °F 12% 29.56 in 5.0 mi Calm Calm - N/A   Haze
5:32 AM 10.4 °F 4.0 °F -34.6 °F 11% 29.55 in 5.0 mi WSW 3.5 mph - N/A   Haze
5:52 AM 12.2 °F - -34.6 °F 11% 29.54 in 7.0 mi Calm Calm - N/A   Clear
6:13 AM 10.4 °F - -34.6 °F 11% 29.53 in 5.0 mi Calm Calm - N/A   Haze
6:32 AM 6.8 °F -0.1 °F -38.2 °F 11% 29.53 in 7.0 mi West 3.5 mph - N/A   Clear
6:52 AM 10.4 °F - -36.4 °F 10% 29.52 in 1.0 mi Calm Calm - N/A   Haze
7:12 AM 8.6 °F - -36.4 °F 11% 29.52 in 2.0 mi Calm Calm - N/A   Haze
7:32 AM 8.6 °F - -36.4 °F 11% 29.51 in 5.0 mi Calm Calm - N/A   Haze
7:52 AM 8.6 °F - -36.4 °F 11% 29.52 in 3.0 mi Calm Calm - N/A   Haze
8:13 AM 10.4 °F 4.0 °F -34.6 °F 11% 29.51 in 7.0 mi SSE 3.5 mph - N/A   Clear
8:32 AM 10.4 °F 4.0 °F -34.6 °F 11% 29.51 in 7.0 mi South 3.5 mph - N/A   Scattered Clouds
8:52 AM 12.2 °F - -32.8 °F 12% 29.51 in 10.0 mi Calm Calm - N/A   Scattered Clouds
9:12 AM 14.0 °F - -32.8 °F 11% 29.52 in 10.0 mi Calm Calm - N/A   Mostly Cloudy
9:32 AM 15.8 °F - -31.0 °F 11% 29.51 in 10.0 mi Calm Calm - N/A   Scattered Clouds
9:53 AM 15.8 °F - -31.0 °F 11% 29.51 in 10.0 mi Calm Calm - N/A   Scattered Clouds
10:12 AM 15.8 °F - -31.0 °F 11% 29.51 in 10.0 mi Calm Calm - N/A   Scattered Clouds
11:13 AM 21.2 °F 16.4 °F -25.6 °F 12% 29.53 in 10.0 mi West 3.5 mph - N/A   Clear
11:32 AM 24.8 °F 20.5 °F -25.6 °F 10% 29.53 in 10.0 mi West 3.5 mph - N/A   Scattered Clouds
11:52 AM 24.8 °F 17.9 °F -25.6 °F 10% 29.53 in 10.0 mi West 5.8 mph - N/A   Mostly Cloudy
12:13 PM 24.8 °F 19.1 °F -25.6 °F 10% 29.53 in 10.0 mi WSW 4.6 mph - N/A   Scattered Clouds
12:33 PM 24.8 °F 20.5 °F -25.6 °F 10% 29.52 in 10.0 mi West 3.5 mph - N/A   Scattered Clouds
12:52 PM 24.8 °F 20.5 °F -25.6 °F 10% 29.51 in 10.0 mi South 3.5 mph - N/A   Scattered Clouds
1:13 PM 26.6 °F - -25.6 °F 9% 29.51 in 10.0 mi Calm Calm - N/A   Scattered Clouds
1:32 PM 26.6 °F - -25.6 °F 9% 29.51 in 10.0 mi Calm Calm - N/A   Scattered Clouds
1:53 PM 26.6 °F - -25.6 °F 9% 29.51 in 10.0 mi Calm Calm - N/A   Clear
2:12 PM 28.4 °F 24.6 °F -25.6 °F 9% 29.51 in 10.0 mi South 3.5 mph - N/A   Clear
2:33 PM 28.4 °F - -25.6 °F 9% 29.51 in 10.0 mi Calm Calm - N/A   Scattered Clouds
2:52 PM 28.4 °F - -23.8 °F 9% 29.52 in 10.0 mi Calm Calm - N/A   Mostly Cloudy
3:12 PM 28.4 °F 24.6 °F -25.6 °F 9% 29.53 in 10.0 mi SSW 3.5 mph - N/A   Overcast
3:32 PM 28.4 °F 24.6 °F -23.8 °F 9% 29.54 in 10.0 mi WSW 3.5 mph - N/A   Overcast
3:52 PM 28.4 °F - -23.8 °F 9% 29.55 in 10.0 mi Calm Calm - N/A   Mostly Cloudy
4:33 PM 28.4 °F 21.2 °F -23.8 °F 9% 29.57 in 10.0 mi North 6.9 mph - N/A   Scattered Clouds
4:52 PM 26.6 °F 17.5 °F -25.6 °F 9% 29.58 in 10.0 mi NNE 9.2 mph - N/A   Scattered Clouds
5:12 PM 24.8 °F 14.6 °F -25.6 °F 10% 29.59 in 7.0 mi NNE 10.4 mph - N/A   Mostly Cloudy
5:33 PM 24.8 °F 16.1 °F -27.4 °F 9% 29.61 in 10.0 mi NNE 8.1 mph - N/A   Overcast
5:52 PM 23.0 °F 13.9 °F -27.4 °F 10% 29.62 in 10.0 mi NNE 8.1 mph - N/A   Overcast
6:13 PM 23.0 °F 13.1 °F -27.4 °F 10% 29.63 in 5.0 mi NNE 9.2 mph - N/A Snow Light Snow
6:32 PM 21.2 °F 11.7 °F -27.4 °F 11% 29.64 in 2.0 mi NE 8.1 mph - N/A Snow Light Snow
6:52 PM 21.2 °F 14.9 °F -27.4 °F 11% 29.65 in 1.2 mi NE 4.6 mph - N/A Snow Light Snow
7:12 PM 21.2 °F 14.9 °F -27.4 °F 11% 29.65 in 1.2 mi NE 4.6 mph - N/A Snow Snow
7:33 PM 23.0 °F 15.8 °F -27.4 °F 10% 29.65 in 0.8 mi NE 5.8 mph - N/A Snow Snow
7:52 PM 23.0 °F 17.0 °F -27.4 °F 10% 29.66 in 1.0 mi NE 4.6 mph - N/A Snow Snow
8:13 PM 23.0 °F 17.0 °F -27.4 °F 10% 29.67 in 1.5 mi NNE 4.6 mph - N/A Snow Light Snow
8:32 PM 21.2 °F 14.9 °F -27.4 °F 11% 29.67 in 2.0 mi North 4.6 mph - N/A Snow Light Snow
8:52 PM 21.2 °F 12.6 °F -27.4 °F 11% 29.67 in 2.0 mi North 6.9 mph - N/A Snow Light Snow
9:13 PM 23.0 °F 13.9 °F -27.4 °F 10% 29.68 in 2.0 mi North 8.1 mph - N/A Snow Light Snow
9:32 PM 23.0 °F 13.9 °F -27.4 °F 10% 29.68 in 1.8 mi North 8.1 mph - N/A Snow Light Snow
9:52 PM 23.0 °F 13.1 °F -27.4 °F 10% 29.69 in 1.8 mi North 9.2 mph - N/A Snow Light Snow
10:12 PM 23.0 °F 13.9 °F -27.4 °F 10% 29.69 in 1.5 mi North 8.1 mph - N/A Snow Light Snow
10:33 PM 23.0 °F 13.1 °F -27.4 °F 10% 29.70 in 1.8 mi North 9.2 mph - N/A Snow Light Snow
11:13 PM 21.2 °F 9.5 °F -27.4 °F 11% 29.71 in 1.8 mi North 11.5 mph - N/A Snow Light Snow
11:32 PM 21.2 °F 10.1 °F -27.4 °F 11% 29.72 in 1.5 mi North 10.4 mph - N/A Snow Light Snow
11:53 PM 21.2 °F 9.5 °F -27.4 °F 11% 29.72 in 1.5 mi North 11.5 mph - N/A Snow Light Snow